Location: Helsinki
(60.1699°N, 24.9384°E)
Time: 21:43:59
(UTC+03:00)

SR - All Passes

Search period start: 02 October 2022 00:00
Search period end: 12 October 2022 00:00
Orbit: 573 x 879 km, 66.7° (Epoch: 02 October)

Date Brightness Start Highest point End Pass type
(mag) Time Alt. Az. Time Alt. Az. Time Alt. Az.
02 Oct - 00:35:28 10° WSW 00:41:24 74° NNW 00:47:10 10° NE visible
02 Oct - 02:18:32 10° W 02:24:12 46° N 02:29:36 10° ENE visible
02 Oct - 04:01:35 10° WNW 04:07:15 49° NNE 04:12:31 10° E visible
02 Oct - 05:44:04 10° NW 05:49:48 86° SW 05:55:04 10° SE visible
02 Oct - 07:26:38 10° WNW 07:31:18 28° WSW 07:35:40 10° S daylight
02 Oct - 22:04:27 10° S 22:09:30 30° ESE 22:14:29 10° ENE visible
02 Oct - 23:45:09 10° SW 23:51:06 84° SE 23:56:53 10° NE visible
03 Oct - 01:27:54 10° W 01:33:39 51° NNW 01:39:10 10° ENE visible
03 Oct - 03:11:05 10° WNW 03:16:41 45° N 03:21:57 10° E visible
03 Oct - 04:53:45 10° NW 04:59:30 72° NNE 05:04:48 10° ESE visible
03 Oct - 06:36:08 10° NW 06:41:24 43° SW 06:46:16 10° SSE visible
03 Oct - 08:20:24 10° W 08:22:04 11° WSW 08:23:41 10° WSW daylight
03 Oct - 21:15:37 10° SSE 21:19:43 20° ESE 21:23:46 10° ENE visible
03 Oct - 22:55:05 10° SSW 23:00:55 61° SE 23:06:36 10° NE visible
04 Oct - 00:37:18 10° WSW 00:43:11 61° NNW 00:48:49 10° NE visible
04 Oct - 02:20:30 10° WNW 02:26:06 44° N 02:31:24 10° ENE visible
04 Oct - 04:03:23 10° NW 04:09:05 57° NNE 04:14:22 10° ESE visible
04 Oct - 05:45:46 10° NW 05:51:22 64° SW 05:56:29 10° SSE visible
04 Oct - 07:28:43 10° WNW 07:32:28 19° WSW 07:36:01 10° SSW daylight
04 Oct - 20:27:54 10° SE 20:30:04 12° ESE 20:32:14 10° E night (unlit)
04 Oct - 22:05:20 10° SSW 22:10:51 42° SE 22:16:16 10° NE visible
04 Oct - 23:46:50 10° WSW 23:52:46 77° NW 23:58:30 10° NE visible
05 Oct - 01:29:52 10° W 01:35:31 46° N 01:40:55 10° ENE visible
05 Oct - 03:12:58 10° WNW 03:18:34 48° NNE 03:23:49 10° E visible
05 Oct - 04:55:27 10° NW 05:01:10 90° SSW 05:06:25 10° SE visible
05 Oct - 06:37:58 10° WNW 06:42:43 30° WSW 06:47:08 10° S visible
05 Oct - 21:15:59 10° S 21:20:55 28° ESE 21:25:48 10° ENE visible
05 Oct - 22:56:31 10° SW 23:02:28 81° SE 23:08:14 10° NE visible
06 Oct - 00:39:14 10° W 00:44:59 52° NNW 00:50:29 10° ENE visible
06 Oct - 02:22:26 10° WNW 02:28:00 44° N 02:33:14 10° ENE visible
06 Oct - 04:05:07 10° NW 04:10:50 69° NNE 04:16:07 10° ESE visible
06 Oct - 05:47:30 10° NW 05:52:48 45° SW 05:57:41 10° SSE visible
06 Oct - 07:31:27 10° W 07:33:31 12° WSW 07:35:29 10° SW daylight
06 Oct - 20:27:14 10° SSE 20:31:09 19° ESE 20:35:01 10° ENE visible
06 Oct - 22:06:29 10° SSW 22:12:18 58° SE 22:17:56 10° NE visible
06 Oct - 23:48:38 10° WSW 23:54:30 63° NNW 00:00:08 10° NE visible
07 Oct - 01:31:50 10° WNW 01:37:25 44° N 01:42:41 10° ENE visible
07 Oct - 03:14:44 10° WNW 03:20:24 55° NNE 03:25:39 10° E visible
07 Oct - 04:57:08 10° NW 05:02:44 67° SW 05:07:51 10° SE visible
07 Oct - 06:40:01 10° WNW 06:43:54 20° WSW 06:47:34 10° SSW visible
07 Oct - 19:39:51 10° ESE 19:41:31 11° ESE 19:43:11 10° E visible
07 Oct - 21:16:47 10° S 21:22:15 40° ESE 21:27:36 10° NE visible
07 Oct - 22:58:10 10° WSW 23:04:07 80° NW 23:09:51 10° NE visible
08 Oct - 00:41:10 10° W 00:46:51 46° NNW 00:52:13 10° ENE visible
08 Oct - 02:24:17 10° WNW 02:29:53 47° NNE 02:35:05 10° E visible
08 Oct - 04:06:48 10° NW 04:12:31 87° NE 04:17:44 10° SE visible
08 Oct - 05:49:18 10° WNW 05:54:07 31° WSW 05:58:34 10° S visible
08 Oct - 20:27:31 10° S 20:32:20 27° ESE 20:37:05 10° ENE visible
08 Oct - 22:07:54 10° SW 22:13:50 78° SE 22:19:33 10° NE visible
08 Oct - 23:50:32 10° W 23:56:18 53° NNW 00:01:48 10° ENE visible
09 Oct - 01:33:45 10° WNW 01:39:19 44° N 01:44:31 10° ENE visible
09 Oct - 03:16:28 10° NW 03:22:10 67° NNE 03:27:24 10° ESE visible
09 Oct - 04:58:51 10° NW 05:04:11 48° SW 05:09:04 10° SSE visible
09 Oct - 06:42:34 10° WNW 06:44:57 13° WSW 06:47:13 10° SW visible
09 Oct - 19:38:51 10° SSE 19:42:34 17° ESE 19:46:13 10° ENE visible
09 Oct - 21:17:54 10° SSW 21:23:40 55° SE 21:29:16 10° NE visible
09 Oct - 22:59:57 10° WSW 23:05:50 64° NNW 23:11:27 10° NE visible
10 Oct - 00:43:08 10° WNW 00:48:43 44° N 00:53:58 10° ENE visible
10 Oct - 02:26:05 10° WNW 02:31:43 54° NNE 02:36:55 10° E visible
10 Oct - 04:08:29 10° NW 04:14:05 71° SW 04:19:11 10° SE visible
10 Oct - 05:51:17 10° WNW 05:55:18 21° WSW 05:59:04 10° SSW visible
10 Oct - 18:52:06 10° ESE 18:52:57 10° E 18:53:49 10° E daylight
10 Oct - 20:28:14 10° S 20:33:38 38° ESE 20:38:53 10° ENE visible
10 Oct - 22:09:30 10° SW 22:15:27 82° NW 22:21:10 10° NE visible
10 Oct - 23:52:29 10° W 23:58:08 47° NNW 00:03:30 10° ENE visible
11 Oct - 01:35:37 10° WNW 01:41:10 47° NNE 01:46:21 10° E visible
11 Oct - 03:18:10 10° NW 03:23:50 84° NE 03:29:02 10° SE visible
11 Oct - 05:00:37 10° WNW 05:05:29 33° WSW 05:09:59 10° S visible
11 Oct - 19:39:01 10° SSE 19:43:44 25° ESE 19:48:21 10° ENE visible
11 Oct - 21:19:16 10° SW 21:25:10 74° SE 21:30:53 10° NE visible
11 Oct - 23:01:50 10° W 23:07:36 54° NNW 23:13:05 10° ENE visible
